Location: Eldred Sherwood Park Lake Dam
(42.9416°N, 93.5655°W)
Time: 07:53:25
(UTC+00:00)

Vanguard 2 Rocket - Pass Details

Date: 16 November 2024
Orbit: 554 x 3296 km, 32.9° (Epoch: 06 December)

Event Time Altitude Azimuth Distance (km) Brightness Sun altitude
Rises 10:21:11 0° 193° (SSW) 4,736 10.4 -30.5°
Reaches altitude 10° 10:25:00 10° 177° (S) 4,176 10.3 -29.8°
Maximum altitude 10:33:15 22° 133° (SE) 4,097 10.6 -28.3°
Drops below altitude 10° 10:44:17 10° 92° (E) 5,790 12.0 -26.3°
Sets 10:50:58 0° 81° (E) 7,112 12.7 -25.1°
